21-08-2023, 00:00:10,    202,    0.0,   13.6,   0.00,   0.00, 1019.6,    0.2, -999.0
21-08-2023, 00:00:19,    202,    0.0,   13.6,   0.00,   0.00, 1019.6,    0.2, -999.0
21-08-2023, 00:00:29,    202,    0.0,   13.6,   0.00,   0.00, 1019.6,    0.1, -999.0
21-08-2023, 00:00:39,    202,    0.0,   13.6,   0.00,   0.00, 1019.6,    0.1, -999.0
21-08-2023, 00:00:49,    202,    0.0,   13.6,   0.00,   0.00, 1019.6,    0.3, -999.0
21-08-2023, 00:00:59,    202,    0.0,   13.5,   0.00,   0.00, 1019.6,    0.1, -999.0
21-08-2023, 00:01:09,    202,    0.0,   13.6,   0.00,   0.00, 1019.6,    0.3, -999.0
21-08-2023, 00:01:19,    203,    0.0,   13.6,   0.00,   0.00, 1019.6,    0.3, -999.0
21-08-2023, 00:01:29,    202,    0.0,   13.5,   0.00,   0.00, 1019.6,    0.3, -999.0
21-08-2023, 00:01:39,    202,    0.0,   13.5,   0.00,   0.00, 1019.6,    0.2, -999.0
21-08-2023, 00:01:49,    202,    0.0,   13.6,   0.00,   0.00, 1019.6,    0.2, -999.0
21-08-2023, 00:01:59,    202,    0.0,   13.6,   0.00,   0.00, 1019.6,    0.3, -999.0
21-08-2023, 00:02:09,    202,    0.0,   13.6,   0.00,   0.00, 1019.6,    0.2, -999.0
21-08-2023, 00:02:19,    202,    0.0,   13.6,   0.00,   0.00, 1019.6,    0.1, -999.0
21-08-2023, 00:02:29,    202,    0.0,   13.6,   0.00,   0.00, 1019.6,    0.3, -999.0
21-08-2023, 00:02:39,    203,    0.0,   13.6,   0.00,   0.00, 1019.6,    0.2, -999.0
21-08-2023, 00:02:49,    202,    0.0,   13.6,   0.00,   0.00, 1019.6,    0.3, -999.0
21-08-2023, 00:02:59,    202,    0.0,   13.5,   0.00,   0.00, 1019.6,    0.2, -999.0
21-08-2023, 00:03:09,    202,    0.0,   13.5,   0.00,   0.00, 1019.6,    0.2, -999.0
21-08-2023, 00:03:19,    202,    0.0,   13.5,   0.00,   0.00, 1019.6,    0.3, -999.0
21-08-2023, 00:03:29,    202,    0.0,   13.5,   0.00,   0.00, 1019.6,    0.2, -999.0
21-08-2023, 00:03:39,    203,    0.0,   13.5,   0.00,   0.00, 1019.6,    0.1, -999.0
21-08-2023, 00:03:49,    202,    0.0,   13.5,   0.00,   0.00, 1019.6,    0.1, -999.0
21-08-2023, 00:03:59,    202,    0.0,   13.5,   0.00,   0.00, 1019.6,    0.1, -999.0
21-08-2023, 00:04:09,    202,    0.0,   13.5,   0.00,   0.00, 1019.6,    0.3, -999.0
21-08-2023, 00:04:19,    202,    0.0,   13.5,   0.00,   0.00, 1019.6,    0.4, -999.0
21-08-2023, 00:04:29,    203,    0.0,   13.5,   0.00,   0.00, 1019.6,    0.1, -999.0
21-08-2023, 00:04:39,    203,    0.0,   13.5,   0.00,   0.00, 1019.6,    0.1, -999.0
21-08-2023, 00:04:49,    202,    0.0,   13.5,   0.00,   0.00, 1019.6,    0.3, -999.0
21-08-2023, 00:04:59,    202,    0.0,   13.5,   0.00,   0.00, 1019.6,    0.2, -999.0
21-08-2023, 00:05:08,    203,    0.0,   13.5,   0.00,   0.00, 1019.6,    0.1, -999.0
21-08-2023, 00:05:19,    202,    0.0,   13.5,   0.00,   0.00, 1019.6,    0.2, -999.0
21-08-2023, 00:05:29,    202,    0.0,   13.4,   0.00,   0.00, 1019.6,    0.1, -999.0
21-08-2023, 00:05:38,    202,    0.0,   13.5,   0.00,   0.00, 1019.6,    0.1, -999.0
21-08-2023, 00:05:48,    202,    0.0,   13.5,   0.00,   0.00, 1019.6,    0.2, -999.0
21-08-2023, 00:05:59,    203,    0.0,   13.5,   0.00,   0.00, 1019.6,    0.2, -999.0
21-08-2023, 00:06:08,    202,    0.0,   13.5,   0.00,   0.00, 1019.6,    0.2, -999.0
21-08-2023, 00:06:18,    202,    0.0,   13.4,   0.00,   0.00, 1019.6,    0.1, -999.0
21-08-2023, 00:06:28,    202,    0.0,   13.5,   0.00,   0.00, 1019.6,    0.2, -999.0
21-08-2023, 00:06:39,    202,    0.0,   13.5,   0.00,   0.00, 1019.6,    0.3, -999.0
21-08-2023, 00:06:48,    203,    0.0,   13.5,   0.00,   0.00, 1019.6,    0.2, -999.0
21-08-2023, 00:06:58,    202,    0.0,   13.3,   0.00,   0.00, 1019.6,    0.2, -999.0
21-08-2023, 00:07:09,    203,    0.0,   13.5,   0.00,   0.00, 1019.6,    0.2, -999.0
21-08-2023, 00:07:18,    203,    0.0,   13.5,   0.00,   0.00, 1019.6,    0.1, -999.0
21-08-2023, 00:07:28,    203,    0.0,   13.5,   0.00,   0.00, 1019.6,    0.4, -999.0
21-08-2023, 00:07:38,    202,    0.0,   13.4,   0.00,   0.00, 1019.6,    0.3, -999.0
21-08-2023, 00:07:48,    202,    0.0,   13.5,   0.00,   0.00, 1019.6,    0.2, -999.0
21-08-2023, 00:07:58,    202,    0.0,   13.5,   0.00,   0.00, 1019.6,    0.3, -999.0
21-08-2023, 00:08:08,    202,    0.0,   13.5,   0.00,   0.00, 1019.6,    0.2, -999.0
21-08-2023, 00:08:18,    203,    0.0,   13.5,   0.00,   0.00, 1019.6,    0.1, -999.0
21-08-2023, 00:08:28,    202,    0.0,   13.5,   0.00,   0.00, 1019.6,    0.2, -999.0
21-08-2023, 00:08:38,    203,    0.0,   13.5,   0.00,   0.00, 1019.6,    0.2, -999.0
21-08-2023, 00:08:48,    203,    0.0,   13.5,   0.00,   0.00, 1019.6,    0.2, -999.0
21-08-2023, 00:08:58,    202,    0.0,   13.4,   0.00,   0.00, 1019.6,    0.1, -999.0
21-08-2023, 00:09:08,    203,    0.0,   13.5,   0.00,   0.00, 1019.6,    0.3, -999.0
21-08-2023, 00:09:18,    203,    0.0,   13.4,   0.00,   0.00, 1019.6,    0.2, -999.0
21-08-2023, 00:09:28,    203,    0.0,   13.4,   0.00,   0.00, 1019.6,    0.2, -999.0
21-08-2023, 00:09:38,    203,    0.0,   13.4,   0.00,   0.00, 1019.6,    0.4, -999.0
21-08-2023, 00:09:48,    203,    0.0,   13.4,   0.00,   0.00, 1019.6,    0.3, -999.0
21-08-2023, 00:09:58,    202,    0.0,   13.5,   0.00,   0.00, 1019.6,    0.1, -999.0
21-08-2023, 00:10:08,    203,    0.0,   13.5,   0.00,   0.00, 1019.6,    0.3, -999.0
21-08-2023, 00:10:18,    203,    0.0,   13.4,   0.00,   0.00, 1019.6,    0.2, -999.0
21-08-2023, 00:10:28,    202,    0.0,   13.5,   0.00,   0.00, 1019.6,    0.2, -999.0
21-08-2023, 00:10:38,    202,    0.0,   13.5,   0.00,   0.00, 1019.6,    0.1, -999.0
21-08-2023, 00:10:48,    202,    0.0,   13.5,   0.00,   0.00, 1019.6,    0.1, -999.0
21-08-2023, 00:10:58,    203,    0.0,   13.5,   0.00,   0.00, 1019.6,    0.1, -999.0
21-08-2023, 00:11:08,    203,    0.0,   13.5,   0.00,   0.00, 1019.6,    0.2, -999.0
21-08-2023, 00:11:18,    202,    0.0,   13.4,   0.00,   0.00, 1019.6,    0.2, -999.0
21-08-2023, 00:11:28,    203,    0.0,   13.5,   0.00,   0.00, 1019.6,    0.2, -999.0
21-08-2023, 00:11:37,    203,    0.0,   13.5,   0.00,   0.00, 1019.6,    0.1, -999.0
21-08-2023, 00:11:48,    203,    0.0,   13.5,   0.00,   0.00, 1019.6,    0.2, -999.0
21-08-2023, 00:11:58,    203,    0.0,   13.5,   0.00,   0.00, 1019.6,    0.2, -999.0
21-08-2023, 00:12:08,    202,    0.0,   13.5,   0.00,   0.00, 1019.6,    0.1, -999.0
21-08-2023, 00:12:17,    202,    0.0,   13.5,   0.00,   0.00, 1019.6,    0.3, -999.0
21-08-2023, 00:12:28,    203,    0.0,   13.5,   0.00,   0.00, 1019.6,    0.2, -999.0
21-08-2023, 00:12:38,    202,    0.0,   13.5,   0.00,   0.00, 1019.6,    0.2, -999.0
21-08-2023, 00:12:47,    202,    0.0,   13.5,   0.00,   0.00, 1019.6,    0.4, -999.0
21-08-2023, 00:12:57,    203,    0.0,   13.5,   0.00,   0.00, 1019.6,    0.2, -999.0
21-08-2023, 00:13:08,    203,    0.0,   13.5,   0.00,   0.00, 1019.6,    0.2, -999.0
21-08-2023, 00:13:17,    202,    0.0,   13.5,   0.00,   0.00, 1019.6,    0.3, -999.0
21-08-2023, 00:13:27,    202,    0.0,   13.5,   0.00,   0.00, 1019.6,    0.2, -999.0
21-08-2023, 00:13:37,    202,    0.0,   13.6,   0.00,   0.00, 1019.6,    0.1, -999.0
21-08-2023, 00:13:48,    202,    0.0,   13.5,   0.00,   0.00, 1019.6,    0.2, -999.0
21-08-2023, 00:13:57,    202,    0.0,   13.6,   0.00,   0.00, 1019.6,    0.3, -999.0
21-08-2023, 00:14:07,    202,    0.0,   13.5,   0.00,   0.00, 1019.6,    0.2, -999.0
21-08-2023, 00:14:17,    203,    0.0,   13.5,   0.00,   0.00, 1019.6,    0.1, -999.0
21-08-2023, 00:14:27,    202,    0.0,   13.5,   0.00,   0.00, 1019.6,    0.2, -999.0
21-08-2023, 00:14:37,    203,    0.0,   13.6,   0.00,   0.00, 1019.6,    0.2, -999.0
21-08-2023, 00:14:47,    202,    0.0,   13.5,   0.00,   0.00, 1019.6,    0.2, -999.0
21-08-2023, 00:14:57,    202,    0.0,   13.6,   0.00,   0.00, 1019.6,    0.3, -999.0
21-08-2023, 00:15:07,    203,    0.0,   13.6,   0.00,   0.00, 1019.6,    0.2, -999.0
21-08-2023, 00:15:17,    201,    0.0,   13.6,   0.00,   0.00, 1019.6,    0.2, -999.0
21-08-2023, 00:15:27,    202,    0.0,   13.6,   0.00,   0.00, 1019.6,    0.1, -999.0
21-08-2023, 00:15:37,    202,    0.0,   13.5,   0.00,   0.00, 1019.6,    0.2, -999.0
21-08-2023, 00:15:47,    202,    0.0,   13.5,   0.00,   0.00, 1019.6,    0.0, -999.0
21-08-2023, 00:15:57,    202,    0.0,   13.5,   0.00,   0.00, 1019.6,    0.2, -999.0
21-08-2023, 00:16:07,    203,    0.0,   13.5,   0.00,   0.00, 1019.6,    0.1, -999.0
21-08-2023, 00:16:17,    202,    0.0,   13.5,   0.00,   0.00, 1019.6,    0.2, -999.0
21-08-2023, 00:16:27,    202,    0.0,   13.6,   0.00,   0.00, 1019.6,    0.1, -999.0
21-08-2023, 00:16:37,    203,    0.0,   13.5,   0.00,   0.00, 1019.6,    0.3, -999.0
21-08-2023, 00:16:47,    203,    0.0,   13.5,   0.00,   0.00, 1019.6,    0.1, -999.0
21-08-2023, 00:16:57,    202,    0.0,   13.5,   0.00,   0.00, 1019.6,    0.5, -999.0
21-08-2023, 00:17:07,    202,    0.0,   13.5,   0.00,   0.00, 1019.6,    0.2, -999.0
21-08-2023, 00:17:17,    202,    0.0,   13.6,   0.00,   0.00, 1019.6,    0.1, -999.0
21-08-2023, 00:17:27,    203,    0.0,   13.5,   0.00,   0.00, 1019.6,    0.2, -999.0
21-08-2023, 00:17:37,    202,    0.0,   13.5,   0.00,   0.00, 1019.6,    0.3, -999.0
21-08-2023, 00:17:47,    202,    0.0,   13.5,   0.00,   0.00, 1019.6,    0.2, -999.0
21-08-2023, 00:17:57,    202,    0.0,   13.5,   0.00,   0.00, 1019.6,    0.3, -999.0
21-08-2023, 00:18:06,    202,    0.0,   13.5,   0.00,   0.00, 1019.6,    0.3, -999.0
21-08-2023, 00:18:16,    203,    0.0,   13.5,   0.00,   0.00, 1019.6,    0.2, -999.0
21-08-2023, 00:18:27,    202,    0.0,   13.4,   0.00,   0.00, 1019.6,    0.2, -999.0
21-08-2023, 00:18:37,    203,    0.0,   13.5,   0.00,   0.00, 1019.6,    0.1, -999.0
21-08-2023, 00:18:46,    202,    0.0,   13.5,   0.00,   0.00, 1019.6,    0.2, -999.0
21-08-2023, 00:18:57,    203,    0.0,   13.5,   0.00,   0.00, 1019.6,    0.2, -999.0
21-08-2023, 00:19:07,    202,    0.0,   13.5,   0.00,   0.00, 1019.6,    0.1, -999.0
21-08-2023, 00:19:16,    202,    0.0,   13.5,   0.00,   0.00, 1019.6,    0.3, -999.0
21-08-2023, 00:19:26,    202,    0.0,   13.5,   0.00,   0.00, 1019.6,    0.0, -999.0
21-08-2023, 00:19:37,    202,    0.0,   13.5,   0.00,   0.00, 1019.6,    0.2, -999.0
21-08-2023, 00:19:46,    202,    0.0,   13.5,   0.00,   0.00, 1019.6,    0.1, -999.0
21-08-2023, 00:19:56,    202,    0.0,   13.4,   0.00,   0.00, 1019.6,    0.2, -999.0
21-08-2023, 00:20:06,    203,    0.0,   13.4,   0.00,   0.00, 1019.6,    0.2, -999.0
21-08-2023, 00:20:16,    202,    0.0,   13.4,   0.00,   0.00, 1019.6,    0.2, -999.0
21-08-2023, 00:20:26,    203,    0.0,   13.5,   0.00,   0.00, 1019.6,    0.2, -999.0
21-08-2023, 00:20:36,    203,    0.0,   13.4,   0.00,   0.00, 1019.6,    0.2, -999.0
21-08-2023, 00:20:46,    203,    0.0,   13.4,   0.00,   0.00, 1019.6,    0.2, -999.0
21-08-2023, 00:20:56,    202,    0.0,   13.4,   0.00,   0.00, 1019.6,    0.1, -999.0
21-08-2023, 00:21:06,    202,    0.0,   13.4,   0.00,   0.00, 1019.6,    0.2, -999.0
21-08-2023, 00:21:16,    202,    0.0,   13.4,   0.00,   0.00, 1019.6,    0.1, -999.0
21-08-2023, 00:21:26,    203,    0.0,   13.4,   0.00,   0.00, 1019.6,    0.2, -999.0
21-08-2023, 00:21:36,    202,    0.0,   13.5,   0.00,   0.00, 1019.6,    0.3, -999.0
21-08-2023, 00:21:46,    202,    0.0,   13.5,   0.00,   0.00, 1019.6,    0.2, -999.0
21-08-2023, 00:21:56,    202,    0.0,   13.5,   0.00,   0.00, 1019.6,    0.1, -999.0
21-08-2023, 00:22:06,    202,    0.0,   13.5,   0.00,   0.00, 1019.6,    0.2, -999.0
21-08-2023, 00:22:16,    202,    0.0,   13.4,   0.00,   0.00, 1019.6,    0.1, -999.0
21-08-2023, 00:22:26,    203,    0.0,   13.4,   0.00,   0.00, 1019.6,    0.1, -999.0
21-08-2023, 00:22:36,    202,    0.0,   13.5,   0.00,   0.00, 1019.6,    0.3, -999.0
21-08-2023, 00:22:46,    202,    0.0,   13.4,   0.00,   0.00, 1019.6,    0.1, -999.0
21-08-2023, 00:22:56,    202,    0.0,   13.5,   0.00,   0.00, 1019.6,    0.3, -999.0
21-08-2023, 00:23:06,    202,    0.0,   13.4,   0.00,   0.00, 1019.6,    0.1, -999.0
21-08-2023, 00:23:16,    202,    0.0,   13.5,   0.00,   0.00, 1019.6,    0.2, -999.0
21-08-2023, 00:23:26,    202,    0.0,   13.5,   0.00,   0.00, 1019.6,    0.3, -999.0
21-08-2023, 00:23:36,    202,    0.0,   13.4,   0.00,   0.00, 1019.6,    0.1, -999.0
21-08-2023, 00:23:46,    202,    0.0,   13.4,   0.00,   0.00, 1019.6,    0.1, -999.0
21-08-2023, 00:23:56,    202,    0.0,   13.4,   0.00,   0.00, 1019.6,    0.2, -999.0
21-08-2023, 00:24:06,    202,    0.0,   13.4,   0.00,   0.00, 1019.6,    0.1, -999.0
21-08-2023, 00:24:16,    202,    0.0,   13.5,   0.00,   0.00, 1019.6,    0.3, -999.0
21-08-2023, 00:24:26,    202,    0.0,   13.4,   0.00,   0.00, 1019.6,    0.2, -999.0
21-08-2023, 00:24:35,    202,    0.0,   13.4,   0.00,   0.00, 1019.6,    0.1, -999.0
21-08-2023, 00:24:46,    202,    0.0,   13.4,   0.00,   0.00, 1019.6,    0.1, -999.0
21-08-2023, 00:24:56,    203,    0.0,   13.4,   0.00,   0.00, 1019.6,    0.1, -999.0
21-08-2023, 00:25:05,    202,    0.0,   13.4,   0.00,   0.00, 1019.6,    0.2, -999.0
21-08-2023, 00:25:15,    202,    0.0,   13.4,   0.00,   0.00, 1019.6,    0.2, -999.0
21-08-2023, 00:25:26,    202,    0.0,   13.4,   0.00,   0.00, 1019.6,    0.1, -999.0
21-08-2023, 00:25:36,    201,    0.0,   13.5,   0.00,   0.00, 1019.6,    0.1, -999.0
21-08-2023, 00:25:45,    201,    0.0,   13.4,   0.00,   0.00, 1019.6,    0.2, -999.0
21-08-2023, 00:25:55,    201,    0.0,   13.4,   0.00,   0.00, 1019.6,    0.0, -999.0
21-08-2023, 00:26:06,    201,    0.0,   13.4,   0.00,   0.00, 1019.6,    0.2, -999.0
21-08-2023, 00:26:15,    201,    0.0,   13.4,   0.00,   0.00, 1019.6,    0.3, -999.0
21-08-2023, 00:26:25,    202,    0.0,   13.3,   0.00,   0.00, 1019.6,    0.3, -999.0
21-08-2023, 00:26:35,    201,    0.0,   13.4,   0.00,   0.00, 1019.5,    0.5, -999.0
21-08-2023, 00:26:46,    201,    0.0,   13.4,   0.00,   0.00, 1019.6,    0.1, -999.0
21-08-2023, 00:26:55,    201,    0.0,   13.4,   0.00,   0.00, 1019.6,    0.2, -999.0
21-08-2023, 00:27:05,    202,    0.0,   13.4,   0.00,   0.00, 1019.6,    0.3, -999.0
21-08-2023, 00:27:15,    201,    0.0,   13.4,   0.00,   0.00, 1019.6,    0.1, -999.0
21-08-2023, 00:27:25,    201,    0.0,   13.4,   0.00,   0.00, 1019.6,    0.2, -999.0
21-08-2023, 00:27:35,    201,    0.0,   13.4,   0.00,   0.00, 1019.6,    0.3, -999.0
21-08-2023, 00:27:45,    201,    0.0,   13.3,   0.00,   0.00, 1019.6,    0.1, -999.0
21-08-2023, 00:27:55,    201,    0.0,   13.4,   0.00,   0.00, 1019.6,    0.2, -999.0
21-08-2023, 00:28:05,    201,    0.0,   13.4,   0.00,   0.00, 1019.5,    0.3, -999.0
21-08-2023, 00:28:15,    201,    0.0,   13.4,   0.00,   0.00, 1019.5,    0.0, -999.0
21-08-2023, 00:28:25,    201,    0.0,   13.4,   0.00,   0.00, 1019.6,    0.5, -999.0
21-08-2023, 00:28:35,    201,    0.0,   13.4,   0.00,   0.00, 1019.6,    0.1, -999.0
21-08-2023, 00:28:45,    202,    0.0,   13.4,   0.00,   0.00, 1019.6,    0.2, -999.0
21-08-2023, 00:28:55,    201,    0.0,   13.4,   0.00,   0.00, 1019.6,    0.2, -999.0
21-08-2023, 00:29:05,    201,    0.0,   13.4,   0.00,   0.00, 1019.6,    0.1, -999.0
21-08-2023, 00:29:15,    201,    0.0,   13.4,   0.00,   0.00, 1019.6,    0.2, -999.0
21-08-2023, 00:29:25,    201,    0.0,   13.4,   0.00,   0.00, 1019.5,    0.2, -999.0
21-08-2023, 00:29:35,    201,    0.0,   13.4,   0.00,   0.00, 1019.6,    0.2, -999.0
21-08-2023, 00:29:45,    201,    0.0,   13.4,   0.00,   0.00, 1019.6,    0.1, -999.0
21-08-2023, 00:29:55,    201,    0.0,   13.4,   0.00,   0.00, 1019.6,    0.2, -999.0
21-08-2023, 00:30:05,    201,    0.0,   13.3,   0.00,   0.00, 1019.6,    0.2, -999.0
21-08-2023, 00:30:15,    201,    0.0,   13.4,   0.00,   0.00, 1019.6,    0.1, -999.0
21-08-2023, 00:30:25,    201,    0.0,   13.4,   0.00,   0.00, 1019.6,    0.2, -999.0
21-08-2023, 00:30:35,    201,    0.0,   13.4,   0.00,   0.00, 1019.6,    0.2, -999.0
21-08-2023, 00:30:45,    201,    0.0,   13.4,   0.00,   0.00, 1019.6,    0.2, -999.0
21-08-2023, 00:30:55,    201,    0.0,   13.4,   0.00,   0.00, 1019.6,    0.2, -999.0
21-08-2023, 00:31:05,    201,    0.0,   13.4,   0.00,   0.00, 1019.6,    0.1, -999.0
21-08-2023, 00:31:14,    201,    0.0,   13.4,   0.00,   0.00, 1019.6,    0.1, -999.0
21-08-2023, 00:31:25,    201,    0.0,   13.4,   0.00,   0.00, 1019.6,    0.2, -999.0
21-08-2023, 00:31:35,    201,    0.4,   13.6,   0.00,   0.00, 1019.7,    0.1, -999.0
21-08-2023, 00:31:44,    202,    0.7,   13.5,   0.00,   0.00, 1019.7,    0.3, -999.0
21-08-2023, 00:31:54,    201,    0.3,   13.5,   0.00,   0.00, 1019.7,    0.2, -999.0
21-08-2023, 00:32:05,    201,    0.0,   13.4,   0.00,   0.00, 1019.6,    0.1, -999.0
21-08-2023, 00:32:14,    202,    0.0,   13.5,   0.00,   0.00, 1019.6,    0.3, -999.0
21-08-2023, 00:32:24,    201,    0.0,   13.5,   0.00,   0.00, 1019.6,    0.3, -999.0
21-08-2023, 00:32:34,    201,    0.0,   13.4,   0.00,   0.00, 1019.6,    0.2, -999.0
21-08-2023, 00:32:45,    201,    0.0,   13.4,   0.00,   0.00, 1019.6,    0.3, -999.0
21-08-2023, 00:32:54,    201,    0.0,   13.4,   0.00,   0.00, 1019.6,    0.2, -999.0
21-08-2023, 00:33:04,    201,    0.0,   13.4,   0.00,   0.00, 1019.6,    0.2, -999.0
21-08-2023, 00:33:14,    201,    0.0,   13.5,   0.00,   0.00, 1019.6,    0.1, -999.0
21-08-2023, 00:33:24,    201,    0.0,   13.5,   0.00,   0.00, 1019.6,    0.2, -999.0
21-08-2023, 00:33:34,    201,    0.0,   13.5,   0.00,   0.00, 1019.6,    0.2, -999.0
21-08-2023, 00:33:44,    228,    0.4,   13.5,   0.00,   0.00, 1019.6,    0.2, -999.0
21-08-2023, 00:33:54,    228,    0.0,   13.4,   0.00,   0.00, 1019.5,    0.2, -999.0
21-08-2023, 00:34:04,    229,    0.0,   13.5,   0.00,   0.00, 1019.5,    0.2, -999.0
21-08-2023, 00:34:14,    229,    0.0,   13.5,   0.00,   0.00, 1019.6,    0.2, -999.0
21-08-2023, 00:34:24,    229,    0.0,   13.5,   0.00,   0.00, 1019.5,    0.2, -999.0
21-08-2023, 00:34:34,    229,    0.0,   13.5,   0.00,   0.00, 1019.5,    0.1, -999.0
21-08-2023, 00:34:44,    229,    0.0,   13.5,   0.00,   0.00, 1019.5,    0.2, -999.0
21-08-2023, 00:34:54,    229,    0.0,   13.4,   0.00,   0.00, 1019.5,    0.2, -999.0
21-08-2023, 00:35:04,    229,    0.0,   13.4,   0.00,   0.00, 1019.5,    0.2, -999.0
21-08-2023, 00:35:14,    229,    0.0,   13.4,   0.00,   0.00, 1019.6,    0.1, -999.0
21-08-2023, 00:35:24,    229,    0.0,   13.4,   0.00,   0.00, 1019.6,    0.3, -999.0
21-08-2023, 00:35:34,    229,    0.0,   13.5,   0.00,   0.00, 1019.6,    0.2, -999.0
21-08-2023, 00:35:44,    229,    0.0,   13.4,   0.00,   0.00, 1019.6,    0.1, -999.0
21-08-2023, 00:35:54,    229,    0.0,   13.4,   0.00,   0.00, 1019.6,    0.2, -999.0
21-08-2023, 00:36:04,    229,    0.0,   13.4,   0.00,   0.00, 1019.6,    0.2, -999.0
21-08-2023, 00:36:14,    229,    0.0,   13.4,   0.00,   0.00, 1019.6,    0.3, -999.0
21-08-2023, 00:36:24,    229,    0.0,   13.4,   0.00,   0.00, 1019.6,    0.2, -999.0
21-08-2023, 00:36:34,    226,    0.2,   13.5,   0.00,   0.00, 1019.6,    0.3, -999.0
21-08-2023, 00:36:44,    226,    0.2,   13.5,   0.00,   0.00, 1019.6,    0.2, -999.0
21-08-2023, 00:36:54,    226,    0.5,   13.5,   0.00,   0.00, 1019.7,    0.0, -999.0
21-08-2023, 00:37:04,    216,    0.8,   13.6,   0.00,   0.00, 1019.7,    0.2, -999.0
21-08-2023, 00:37:14,    217,    0.0,   13.5,   0.00,   0.00, 1019.6,    0.2, -999.0
21-08-2023, 00:37:24,    216,    0.0,   13.5,   0.00,   0.00, 1019.6,    0.2, -999.0
21-08-2023, 00:37:34,    216,    0.0,   13.4,   0.00,   0.00, 1019.6,    0.2, -999.0
21-08-2023, 00:37:43,    216,    0.0,   13.5,   0.00,   0.00, 1019.6,    0.2, -999.0
21-08-2023, 00:37:54,    217,    0.0,   13.4,   0.00,   0.00, 1019.6,    0.1, -999.0
21-08-2023, 00:38:04,    216,    0.0,   13.4,   0.00,   0.00, 1019.6,    0.2, -999.0
21-08-2023, 00:38:13,    216,    0.0,   13.4,   0.00,   0.00, 1019.6,    0.1, -999.0
21-08-2023, 00:38:23,    216,    0.0,   13.5,   0.00,   0.00, 1019.6,    0.1, -999.0
21-08-2023, 00:38:34,    216,    0.0,   13.5,   0.00,   0.00, 1019.6,    0.1, -999.0
21-08-2023, 00:38:43,    216,    0.0,   13.4,   0.00,   0.00, 1019.6,    0.3, -999.0
21-08-2023, 00:38:53,    216,    0.0,   13.4,   0.00,   0.00, 1019.6,    0.1, -999.0
21-08-2023, 00:39:03,    216,    0.1,   13.4,   0.00,   0.00, 1019.7,    0.2, -999.0
21-08-2023, 00:39:14,    215,    0.0,   13.4,   0.00,   0.00, 1019.6,    0.4, -999.0
21-08-2023, 00:39:23,    216,    0.0,   13.5,   0.00,   0.00, 1019.6,    0.2, -999.0
21-08-2023, 00:39:33,    216,    0.0,   13.4,   0.00,   0.00, 1019.6,    0.3, -999.0
21-08-2023, 00:39:43,    213,    0.0,   13.4,   0.00,   0.00, 1019.6,    0.3, -999.0
21-08-2023, 00:39:53,    213,    0.0,   13.4,   0.00,   0.00, 1019.6,    0.1, -999.0
21-08-2023, 00:40:03,    212,    0.0,   13.5,   0.00,   0.00, 1019.6,    0.1, -999.0
21-08-2023, 00:40:13,    211,    0.8,   13.5,   0.00,   0.00, 1019.7,    0.2, -999.0
21-08-2023, 00:40:23,    211,    0.1,   13.5,   0.00,   0.00, 1019.6,    0.2, -999.0
21-08-2023, 00:40:33,    211,    0.1,   13.4,   0.00,   0.00, 1019.7,    0.2, -999.0
21-08-2023, 00:40:43,    211,    0.0,   13.4,   0.00,   0.00, 1019.6,    0.1, -999.0
21-08-2023, 00:40:53,    211,    0.0,   13.4,   0.00,   0.00, 1019.6,    0.1, -999.0
21-08-2023, 00:41:03,    211,    0.0,   13.4,   0.00,   0.00, 1019.6,    0.2, -999.0
21-08-2023, 00:41:13,    211,    0.0,   13.4,   0.00,   0.00, 1019.6,    0.4, -999.0
21-08-2023, 00:41:23,    209,    0.0,   13.4,   0.00,   0.00, 1019.6,    0.1, -999.0
21-08-2023, 00:41:33,    211,    0.0,   13.4,   0.00,   0.00, 1019.6,    0.1, -999.0
21-08-2023, 00:41:43,    211,    0.0,   13.4,   0.00,   0.00, 1019.6,    0.3, -999.0
21-08-2023, 00:41:53,    210,    0.0,   13.4,   0.00,   0.00, 1019.6,    0.3, -999.0
21-08-2023, 00:42:03,    211,    0.0,   13.4,   0.00,   0.00, 1019.6,    0.1, -999.0
21-08-2023, 00:42:13,    211,    0.0,   13.4,   0.00,   0.00, 1019.6,    0.1, -999.0
21-08-2023, 00:42:23,    210,    0.0,   13.4,   0.00,   0.00, 1019.6,    0.1, -999.0
21-08-2023, 00:42:33,    211,    0.0,   13.3,   0.00,   0.00, 1019.6,    0.2, -999.0
21-08-2023, 00:42:43,    219,    0.0,   13.4,   0.00,   0.00, 1019.6,    0.1, -999.0
21-08-2023, 00:42:53,    220,    0.0,   13.3,   0.00,   0.00, 1019.6,    0.2, -999.0
21-08-2023, 00:43:03,    220,    0.0,   13.4,   0.00,   0.00, 1019.6,    0.2, -999.0
21-08-2023, 00:43:13,    220,    0.0,   13.4,   0.00,   0.00, 1019.6,    0.3, -999.0
21-08-2023, 00:43:23,    220,    0.0,   13.4,   0.00,   0.00, 1019.6,    0.3, -999.0
21-08-2023, 00:43:32,    221,    0.0,   13.4,   0.00,   0.00, 1019.6,    0.1, -999.0
21-08-2023, 00:43:43,    220,    0.0,   13.4,   0.00,   0.00, 1019.6,    0.3, -999.0
21-08-2023, 00:43:53,    220,    0.0,   13.3,   0.00,   0.00, 1019.6,    0.2, -999.0
21-08-2023, 00:44:03,    220,    0.0,   13.4,   0.00,   0.00, 1019.6,    0.1, -999.0
21-08-2023, 00:44:13,    220,    0.0,   13.4,   0.00,   0.00, 1019.6,    0.3, -999.0
21-08-2023, 00:44:23,    220,    0.0,   13.4,   0.00,   0.00, 1019.6,    0.1, -999.0
21-08-2023, 00:44:33,    221,    0.0,   13.4,   0.00,   0.00, 1019.6,    0.1, -999.0
21-08-2023, 00:44:42,    222,    0.0,   13.4,   0.00,   0.00, 1019.6,    0.2, -999.0
21-08-2023, 00:44:53,    221,    0.0,   13.4,   0.00,   0.00, 1019.6,    0.1, -999.0
21-08-2023, 00:45:03,    220,    0.0,   13.4,   0.00,   0.00, 1019.6,    0.3, -999.0
21-08-2023, 00:45:12,    221,    0.0,   13.4,   0.00,   0.00, 1019.6,    0.1, -999.0
21-08-2023, 00:45:22,    221,    0.0,   13.3,   0.00,   0.00, 1019.6,    0.1, -999.0
21-08-2023, 00:45:33,    221,    0.0,   13.4,   0.00,   0.00, 1019.6,    0.2, -999.0
21-08-2023, 00:45:42,    224,    0.0,   13.4,   0.00,   0.00, 1019.6,    0.0, -999.0
21-08-2023, 00:45:52,    221,    0.0,   13.3,   0.00,   0.00, 1019.6,    0.1, -999.0
21-08-2023, 00:46:02,    220,    0.0,   13.3,   0.00,   0.00, 1019.6,    0.3, -999.0
21-08-2023, 00:46:12,    220,    0.0,   13.3,   0.00,   0.00, 1019.6,    0.2, -999.0
21-08-2023, 00:46:22,    221,    0.0,   13.4,   0.00,   0.00, 1019.6,    0.3, -999.0
21-08-2023, 00:46:32,    221,    0.0,   13.4,   0.00,   0.00, 1019.6,    0.2, -999.0
21-08-2023, 00:46:42,    221,    0.0,   13.4,   0.00,   0.00, 1019.6,    0.3, -999.0
21-08-2023, 00:46:52,    221,    0.0,   13.4,   0.00,   0.00, 1019.6,    0.1, -999.0